User: anonymous   Login
Location: Unspecified
(0.0000°N, 0.0000°E)
Time: 10:13:47
(UTC+00:00)
Language:

NOAA 15 - Orbit

View from above orbital plane
View from above orbital plane
View from above satellite
View from above satellite

Ground track
Ground track

The orbit data is extracted from the following two-line orbital elements,

1 25338U 98030A   17116.91630680  .00000050  00000-0  39747-4 0  9999
2 25338 098.7838 127.7207 0010495 002.2332 357.8892 14.25788500985434
Epoch (UTC): 26 April 2017 21:59:28
Eccentricity: 0.0010495
inclination: 98.7838°
perigee height: 798 km
apogee height: 813 km
right ascension of ascending node: 127.7207°
argument of perigee: 2.2332°
revolutions per day: 14.25788500
mean anomaly at epoch: 357.8892°
orbit number at epoch: 98543

The dashed part of the orbit path shows where the satellite is in the earth's shadow,  

DLR